Snowfall_Accumulation
0.0 0.0 0.0 0.0 0.0 0.0 0.0 0.0 0.0 0.0 0.0 0.0 0.0 0.0 0.0 0.0 0.0 0.0 0.0 0.0 0.0 0.0 0.0 0.0 0.0 0.0 0.0 0.0 0.0 0.0 0.0 0.0 0.0 0.0 0.0 0.0 0.0 0.0
0.0 0.0 0.0 0.0 0.0 0.0 0.0 0.0 0.0 0.0 0.0 0.0 0.1 0.0 0.0 0.0 0.0 0.0 0.0 0.0 0.0 0.0 0.0 0.0 0.0 0.0 0.0 0.0 0.0 0.0 0.0 0.0 0.0 0.0 0.0 0.0 0.0 0.0
0.0 0.0 0.0 0.0 0.0 0.0 0.0 0.1 0.1 0.0 0.0 1.3 0.7 0.0 0.0 0.0 0.0 0.0 0.0 0.0 0.0 0.0 0.0 0.0 0.0 0.0 0.0 0.0 0.0 0.0 0.0 0.0 0.0 0.0 0.0 0.0 0.0 0.0
0.0 0.0 0.0 0.0 0.0 0.5 0.0 0.2 0.1 1.1 0.9 0.4 0.0 0.0 0.0 0.0 0.0 0.0 0.0 0.0 0.0 0.0 0.0 0.0 0.0 0.0 0.0 0.0 0.0 0.0 0.0 0.0 0.0 0.0 0.0 0.0 0.0 0.0
0.0 0.0 0.0 0.0 0.0 0.4 0.2 0.1 0.6 0.1 0.1 0.2 0.0 0.0 0.0 0.0 0.0 0.0 0.0 0.0 0.0 0.0 0.0 0.0 0.0 0.0 0.0 0.0 0.0 0.0 0.0 0.0 0.0 0.0 0.0 0.0 0.0 0.0
0.0 0.0 0.4 1.0 0.0 0.5 0.6 0.3 0.1 0.1 0.1 0.1 0.0 1.1 0.2 0.1 0.2 0.1 0.0 0.0 0.0 0.0 0.0 0.0 0.0 0.0 0.0 0.0 0.0 0.0 0.0 0.0 0.0 0.0 0.0 0.0 0.0 0.0
1.0 1.1 1.0 0.5 0.0 0.0 0.0 0.0 0.1 0.1 1.3 3.4 2.3 1.3 1.4 0.0 0.0 0.0 0.0 0.0 0.1 0.0 0.0 0.0 0.0 0.0 0.0 0.0 0.0 0.0 0.0 0.0 0.0 0.0 0.0 0.0 0.0 0.0
2.1 1.2 1.5 0.9 0.2 0.0 0.0 0.0 0.0 0.8 3.0 4.4 4.6 0.8 0.0 0.0 0.0 0.1 1.2 1.4 1.8 0.0 0.1 0.1 0.0 0.0 0.0 0.0 0.0 0.0 0.0 0.0 0.0 0.0 0.0 0.0 0.0 0.0
1.5 1.2 0.4 0.2 0.2 0.0 0.0 0.0 0.3 0.3 0.3 0.7 0.3 0.1 0.2 0.0 2.0 2.8 1.6 3.2 2.3 0.0 0.1 0.4 0.0 0.0 0.0 0.0 0.0 0.0 0.0 0.0 0.0 0.0 0.0 0.0 0.0 0.0
0.0 0.1 0.0 0.0 0.0 0.1 0.2 1.6 0.4 0.2 0.0 0.0 0.0 0.1 0.6 0.2 0.5 1.3 2.8 1.8 0.3 0.0 0.1 2.2 0.0 0.1 0.0 0.0 0.0 0.0 0.0 0.0 0.0 0.0 0.0 0.0 0.0 0.0
0.0 0.0 0.1 0.0 0.0 0.0 1.3 1.5 0.2 0.0 0.0 0.0 0.2 0.0 0.0 0.0 0.0 2.1 2.8 3.8 2.4 0.2 0.0 0.5 0.2 0.2 0.1 0.0 0.0 0.0 0.0 0.0 0.0 0.0 0.0 0.0 0.0 0.0
0.0 0.0 0.0 0.0 0.0 0.3 0.2 0.1 0.5 0.0 1.4 0.6 0.0 0.0 0.0 0.0 0.0 0.2 5.2 13.7 6.4 4.8 0.0 5.4 1.9 1.3 6.3 1.5 1.5 1.0 0.0 0.0 0.0 0.0 0.0 0.0 0.0 0.1
0.5 0.0 0.0 0.1 0.5 0.1 0.0 0.0 0.1 0.2 0.1 0.1 0.0 0.0 0.0 0.0 0.1 0.3 2.0 10.3 15.7 9.9 0.1 9.8 12.6 1.4 9.7 5.2 3.5 3.3 2.2 0.1 0.2 0.0 0.0 0.1 0.1 0.2
0.1 0.0 0.3 0.6 0.0 0.0 0.0 0.1 0.2 0.1 0.0 0.1 0.2 0.2 0.2 0.3 0.2 0.2 0.3 1.9 3.8 9.8 3.0 4.7 22.3 10.6 15.3 10.3 5.1 5.8 2.8 3.1 2.4 1.4 0.6 0.4 0.3 0.3
0.0 0.5 0.4 0.0 0.0 0.0 0.0 0.0 0.0 0.0 0.9 2.3 1.4 0.6 0.7 1.3 2.0 2.8 4.7 4.9 6.0 7.2 8.2 7.4 12.5 11.9 14.2 13.8 9.8 6.0 7.9 6.2 4.2 6.2 3.8 2.0 2.1 1.2
0.9 0.6 0.0 0.0 0.0 0.0 0.0 0.0 0.0 0.3 2.5 4.8 4.0 2.7 3.5 5.2 6.2 7.4 11.8 10.3 11.9 9.7 7.7 7.0 8.8 10.6 11.7 6.2 10.4 8.9 6.6 12.8 9.0 8.0 7.5 3.4 1.3 0.6
0.3 0.0 0.0 0.0 0.0 0.0 0.0 0.0 0.0 0.3 2.6 2.7 4.3 4.5 4.5 7.2 8.2 9.6 13.5 13.2 13.4 9.8 7.8 6.9 6.2 4.5 4.8 6.7 9.9 6.8 9.6 8.4 8.9 12.0 9.7 5.9 4.5 1.2
0.0 0.0 0.0 0.1 0.2 0.1 0.5 0.8 0.9 1.3 3.5 5.8 6.6 7.2 10.0 11.7 14.3 15.4 15.2 15.1 14.4 10.2 11.3 8.4 8.4 8.4 8.8 5.9 7.6 12.8 10.4 10.9 11.7 12.2 9.5 6.9 6.0 3.0
0.0 0.2 0.2 0.4 0.5 0.7 1.3 2.8 4.0 3.8 6.9 9.5 10.9 11.5 13.4 15.4 16.3 15.8 13.8 12.3 10.8 9.1 7.1 6.8 10.1 13.0 16.5 10.7 8.3 6.8 16.4 13.5 10.0 10.7 9.4 6.6 7.0 4.6
0.2 1.5 0.6 0.7 1.3 2.6 3.6 6.1 8.1 8.0 7.4 9.6 11.9 15.2 17.5 21.2 19.7 17.0 13.0 11.7 10.9 8.0 7.5 5.9 6.3 10.4 19.6 18.8 17.1 14.3 8.1 13.7 12.0 11.7 8.9 5.7 4.4 0.0
0.4 1.8 1.9 1.4 2.9 3.8 4.4 7.4 9.4 13.1 15.9 17.6 15.9 18.6 18.6 21.8 17.0 10.5 9.2 5.0 6.9 9.1 9.9 6.1 5.5 4.0 8.8 9.4 13.1 11.6 12.5 6.7 5.1 13.3 10.6 8.9 5.5 3.5
0.9 1.5 1.7 2.6 3.0 4.5 6.9 10.3 14.7 16.0 18.4 15.7 18.7 19.4 17.2 15.8 14.0 9.9 7.7 9.5 7.1 6.7 7.5 6.7 7.7 9.5 8.3 10.2 11.2 9.6 9.9 7.7 4.0 2.7 1.8 4.5 12.2 17.5
1.8 1.3 2.0 3.2 3.4 5.2 8.2 14.0 17.2 18.6 18.3 20.3 18.7 16.8 14.3 12.5 6.3 6.9 7.5 7.5 8.8 10.5 9.0 9.9 9.8 8.4 7.5 8.8 9.9 10.5 8.3 7.7 5.3 4.4 5.7 0.8 0.9 1.6